Location: Newark
(43.0658°N, 122.2322°W)
Time: 08:44:52
(UTC+00:00)

STARLINK-1657 - Pass Details

Date: 21 September 2020
Orbit: 548 x 551 km, 53.0° (Epoch: 24 October)

Event Time Altitude Azimuth Distance (km) Brightness Sun altitude
Exits shadow 10:41:11 17° 34° (NNE) 1,446 6.4 -33.8°
Drops below altitude 10° 10:42:20 10° 43° (NE) 1,828 7.1 -33.6°
Enters shadow 11:42:05 -65° 254° (WSW) 12,145 10.4 -24.4°
